London-Corbin, KY

5:34 PM EDT on April 25, 2017 (GMT -0400)
London-Corbin / McKee

Weather History for KLOZ - August, 2014

Change the Weather History Date:

Tuesday, August 12, 2014

  Actual Average Record
Temperature  
Mean Temperature 74 °F 76 °F  
Max Temperature 83 °F 86 °F 95 °F (2007)
Min Temperature 64 °F 65 °F 52 °F (1967)
Degree Days  
Heating Degree Days 0 0  
Month to date heating degree days 0 0  
Since 1 June heating degree days 9  
Since 1 July heating degree days 0 0  
Cooling Degree Days 9 11  
Month to date cooling degree days 115 132  
Year to date cooling degree days 839  
Since 1 June cooling degree days 725  
Growing Degree Days 26 (Base 50)    
Moisture  
Dew Point 65 °F    
Average Humidity 69    
Maximum Humidity 90    
Minimum Humidity 47    
Precipitation  
Precipitation 0.07 in 0.13 in 0.98 in (2004)
Month to date precipitation 2.06 1.55  
Sea Level Pressure  
Sea Level Pressure 29.88 in    
Wind  
Wind Speed 8 mph (West)    
Max Wind Speed 23 mph    
Max Gust Speed 29 mph    
Visibility 9 miles    
Events Rain    
T = Trace of Precipitation, MM = Missing Value Source: NWS Daily Summary

Daily Weather History Graph

Daily Weather History Graph

Search for Another Location

Airport or City:

Trip Planner

Search our weather history database for the weather conditions in past years. The results will help you decide how hot, cold, wet, or windy it might be!

Date:

Astronomy

Aug. 12, 2014 Rise Set
Actual Time 6:50 AM EDT 8:31 PM EDT
Civil Twilight 6:22 AM EDT 8:59 PM EDT
Nautical Twilight 5:48 AM EDT 9:32 PM EDT
Astronomical Twilight 5:13 AM EDT 10:08 PM EDT
Moon 9:43 PM EDT (8/12) 9:02 AM EDT (8/12)
Length of Visible Light 14h 36m
Length of Day
13h 41m
Waning Gibbous, 95% of the Moon is Illuminated
Aug 12
Waning Gibbous
Aug 17
Last Quarter
Aug 25
New
Sep 2
First Quarter
Sep 8
Full

Hourly Weather History & Observations

Time (EDT) Temp. Heat Index Dew Point Humidity Pressure Visibility Wind Dir Wind Speed Gust Speed Precip Events Conditions
12:53 AM 70.0 °F - 66.9 °F 90% 29.90 in 10.0 mi SSW 3.5 mph - N/A   Mostly Cloudy
1:53 AM 70.0 °F - 66.0 °F 87% 29.88 in 10.0 mi SSW 4.6 mph - N/A   Clear
2:53 AM 70.0 °F - 66.0 °F 87% 29.86 in 10.0 mi SW 3.5 mph - N/A   Mostly Cloudy
3:31 AM 70.0 °F - 66.9 °F 90% 29.90 in 10.0 mi SW 5.8 mph - N/A   Overcast
3:53 AM 71.1 °F - 66.9 °F 87% 29.87 in 10.0 mi WSW 5.8 mph - N/A   Overcast
4:29 AM 71.1 °F - 66.9 °F 87% 29.90 in 10.0 mi West 3.5 mph - N/A   Overcast
4:37 AM 71.1 °F - 66.9 °F 87% 29.90 in 10.0 mi WSW 3.5 mph - N/A   Overcast
4:53 AM 71.1 °F - 66.9 °F 87% 29.86 in 10.0 mi West 5.8 mph - 0.00 in Rain Light Rain
5:53 AM 71.1 °F - 66.9 °F 87% 29.86 in 10.0 mi West 5.8 mph - 0.00 in   Overcast
6:41 AM 70.0 °F - 66.9 °F 90% 29.90 in 8.0 mi West 4.6 mph - N/A   Overcast
6:53 AM 70.0 °F - 66.9 °F 90% 29.87 in 8.0 mi WSW 4.6 mph - N/A   Overcast
7:53 AM 71.1 °F - 68.0 °F 90% 29.88 in 9.0 mi SW 3.5 mph - N/A   Overcast
8:01 AM 71.1 °F - 68.0 °F 90% 29.91 in 9.0 mi SSW 3.5 mph - N/A   Overcast
8:31 AM 71.1 °F - 66.9 °F 87% 29.92 in 6.0 mi West 5.8 mph - N/A   Overcast
8:53 AM 71.1 °F - 66.9 °F 87% 29.88 in 8.0 mi WSW 4.6 mph - N/A   Overcast
9:13 AM 73.0 °F - 66.9 °F 81% 29.92 in 10.0 mi West 6.9 mph - N/A   Overcast
9:53 AM 73.9 °F - 66.9 °F 79% 29.88 in 10.0 mi SW 4.6 mph - N/A   Overcast
10:53 AM 75.0 °F - 66.9 °F 76% 29.89 in 9.0 mi SSW 5.8 mph - N/A   Overcast
11:53 AM 77.0 °F - 66.9 °F 71% 29.89 in 10.0 mi SW 9.2 mph - N/A   Overcast
1:53 PM 82.9 °F 85.4 °F 66.9 °F 58% 29.84 in 10.0 mi WSW 10.4 mph - N/A   Mostly Cloudy
2:18 PM 73.0 °F - 66.0 °F 79% 29.90 in 1.8 mi WSW 11.5 mph 28.8 mph 0.06 in Rain Heavy Rain
2:26 PM 73.0 °F - 66.0 °F 79% 29.89 in 4.0 mi WNW 6.9 mph - 0.07 in Rain Light Rain
2:53 PM 79.0 °F - 70.0 °F 74% 29.85 in 10.0 mi West 11.5 mph - 0.07 in   Scattered Clouds
3:53 PM 81.0 °F 82.7 °F 64.9 °F 58% 29.83 in 10.0 mi WNW 18.4 mph 23.0 mph N/A   Scattered Clouds
4:53 PM 82.0 °F 82.4 °F 60.1 °F 47% 29.83 in 10.0 mi WNW 15.0 mph - N/A   Clear
5:53 PM 81.0 °F 81.6 °F 60.1 °F 49% 29.84 in 10.0 mi NW 10.4 mph - N/A   Partly Cloudy
6:53 PM 79.0 °F - 60.1 °F 52% 29.85 in 10.0 mi WNW 12.7 mph - N/A   Clear
7:53 PM 75.9 °F - 59.0 °F 56% 29.87 in 10.0 mi WNW 10.4 mph - N/A   Clear
8:53 PM 73.0 °F - 59.0 °F 61% 29.90 in 10.0 mi NW 8.1 mph - N/A   Clear
9:53 PM 71.1 °F - 59.0 °F 66% 29.93 in 10.0 mi NW 8.1 mph - N/A   Partly Cloudy
10:53 PM 69.1 °F - 57.9 °F 68% 29.95 in 10.0 mi WNW 3.5 mph - N/A   Clear
11:53 PM 66.9 °F - 59.0 °F 76% 29.96 in 10.0 mi WNW 3.5 mph - N/A   Scattered Clouds